Location: Diati
(11.8376°N, 2.5966°E)
Time: 17:41:09
(UTC+00:00)

Cosmos 2112 Rocket - Pass Details

Date: 21 September 2020
Orbit: 756 x 787 km, 74.1° (Epoch: 19 October)

Event Time Altitude Azimuth Distance (km) Brightness Sun altitude
Rises 18:52:31 0° 343° (NNW) 3,219 7.5 -17.1°
Reaches altitude 10° 18:54:54 10° 340° (NNW) 2,298 6.8 -17.7°
Maximum altitude 19:00:04 68° 258° (WSW) 826 4.3 -18.9°
Drops below altitude 10° 19:05:18 10° 175° (S) 2,318 6.4 -20.2°
Sets 19:07:42 0° 173° (S) 3,250 7.1 -20.8°
